| time (UTC) | temp C | wind direction | speed KPH | gust KPH | rain 1hr cm | rain 24hr cm | rain mn cm | humidity % | barometer mb |
| 20260504031321 | 6 | 138 | 1.6 | 4.8 | 0.00 | 0.00 | 0.00 | 72 | 1013.4 |
| 20260504030322 | 6 | 12 | 1.6 | 6.4 | 0.00 | 0.00 | 0.00 | 71 | 1013.3 |
| 20260504025313 | 6 | 258 | 1.6 | 3.2 | 0.00 | 0.00 | 0.00 | 70 | 1013.4 |
| 20260504024316 | 6 | 181 | 1.6 | 4.8 | 0.00 | 0.00 | 0.00 | 69 | 1013.3 |
| 20260504023314 | 7 | 135 | 0.0 | 1.6 | 0.00 | 0.00 | 0.00 | 68 | 1013.2 |
| 20260504022337 | 7 | 135 | 0.0 | 3.2 | 0.00 | 0.00 | 0.00 | 68 | 1013.2 |
| 20260504021315 | 7 | 135 | 0.0 | 0.0 | 0.00 | 0.00 | 0.00 | 66 | 1013.1 |
| 20260504020314 | 7 | 135 | 0.0 | 1.6 | 0.00 | 0.00 | 0.00 | 65 | 1013.1 |
| 20260504015313 | 7 | 135 | 0.0 | 1.6 | 0.00 | 0.00 | 0.00 | 64 | 1013.0 |
| 20260504014319 | 7 | 135 | 0.0 | 0.0 | 0.00 | 0.00 | 0.00 | 63 | 1013.0 |
| 20260504013317 | 8 | 135 | 0.0 | 3.2 | 0.00 | 0.00 | 0.00 | 60 | 1012.9 |
| 20260504012322 | 8 | 135 | 0.0 | 1.6 | 0.00 | 0.00 | 0.00 | 57 | 1012.7 |
| 20260504011335 | 9 | 135 | 0.0 | 3.2 | 0.00 | 0.00 | 0.00 | 55 | 1012.7 |
| 20260504010333 | 10 | 135 | 1.6 | 3.2 | 0.00 | 0.00 | 0.00 | 55 | 1012.7 |
| 20260504005316 | 10 | 135 | 3.2 | 3.2 | 0.00 | 0.00 | 0.00 | 53 | 1012.7 |
| 20260504004313 | 10 | 135 | 0.0 | 4.8 | 0.00 | 0.00 | 0.00 | 52 | 1012.6 |
| 20260504003339 | 10 | 146 | 3.2 | 4.8 | 0.00 | 0.00 | 0.00 | 51 | 1012.6 |
| 20260504002358 | 11 | 130 | 3.2 | 4.8 | 0.00 | 0.00 | 0.00 | 48 | 1012.5 |
| 20260504001312 | 12 | 150 | 3.2 | 3.2 | 0.00 | 0.00 | 0.00 | 46 | 1012.4 |
| 20260504000337 | 13 | 161 | 3.2 | 6.4 | 0.00 | 0.00 | 0.00 | 42 | 1012.4 |
| 20260503235312 | 13 | 257 | 1.6 | 6.4 | 0.00 | 0.00 | 0.00 | 35 | 1012.3 |
| 20260503234336 | 14 | 303 | 4.8 | 8.0 | 0.00 | 0.00 | 0.00 | 35 | 1012.2 |
| 20260503233314 | 15 | 294 | 3.2 | 12.9 | 0.00 | 0.00 | 0.00 | 34 | 1012.1 |
| 20260503232312 | 15 | 290 | 4.8 | 16.1 | 0.00 | 0.00 | 0.00 | 33 | 1012.1 |
| 20260503231314 | 16 | 282 | 6.4 | 16.1 | 0.00 | 0.00 | 0.00 | 33 | 1012.1 |
| 20260503230337 | 16 | 286 | 9.7 | 14.5 | 0.00 | 0.00 | 0.00 | 33 | 1011.9 |
| 20260503225337 | 16 | 279 | 6.4 | 14.5 | 0.00 | 0.00 | 0.00 | 33 | 1011.8 |
| 20260503224329 | 16 | 290 | 6.4 | 16.1 | 0.00 | 0.00 | 0.00 | 35 | 1011.9 |
| 20260503223328 | 16 | 302 | 11.3 | 19.3 | 0.00 | 0.00 | 0.00 | 33 | 1011.9 |
| 20260503222334 | 16 | 285 | 11.3 | 17.7 | 0.00 | 0.00 | 0.00 | 31 | 1012.0 |
| 20260503221336 | 16 | 317 | 6.4 | 24.1 | 0.00 | 0.00 | 0.00 | 35 | 1012.0 |
| 20260503220329 | 16 | 340 | 14.5 | 19.3 | 0.00 | 0.00 | 0.00 | 32 | 1012.2 |
| 20260503215331 | 17 | 298 | 6.4 | 22.5 | 0.00 | 0.00 | 0.00 | 33 | 1012.2 |
| 20260503214336 | 17 | 301 | 6.4 | 14.5 | 0.00 | 0.00 | 0.00 | 32 | 1012.1 |
| 20260503213328 | 16 | 265 | 14.5 | 25.7 | 0.00 | 0.00 | 0.00 | 32 | 1012.2 |
| 20260503212329 | 16 | 316 | 12.9 | 22.5 | 0.00 | 0.00 | 0.00 | 31 | 1012.3 |
| 20260503211320 | 16 | 313 | 14.5 | 24.1 | 0.00 | 0.00 | 0.00 | 33 | 1012.2 |
| 20260503210352 | 16 | 309 | 9.7 | 20.9 | 0.00 | 0.00 | 0.00 | 34 | 1012.2 |
| 20260503205337 | 16 | 229 | 6.4 | 22.5 | 0.00 | 0.00 | 0.00 | 33 | 1012.2 |
| 20260503204314 | 17 | 336 | 16.1 | 22.5 | 0.00 | 0.00 | 0.00 | 32 | 1012.2 |
| 20260503203329 | 16 | 341 | 9.7 | 22.5 | 0.00 | 0.00 | 0.00 | 37 | 1012.2 |
| 20260503202314 | 17 | 321 | 17.7 | 30.6 | 0.00 | 0.00 | 0.00 | 36 | 1012.4 |
| 20260503201328 | 16 | 323 | 16.1 | 27.4 | 0.00 | 0.00 | 0.00 | 34 | 1012.3 |
| 20260503200348 | 16 | 313 | 11.3 | 24.1 | 0.00 | 0.00 | 0.00 | 32 | 1012.5 |
| 20260503195332 | 16 | 337 | 16.1 | 24.1 | 0.00 | 0.00 | 0.00 | 32 | 1012.8 |
| 20260503194311 | 16 | 360 | 9.7 | 25.7 | 0.00 | 0.00 | 0.00 | 33 | 1012.8 |
| 20260503193352 | 16 | 304 | 11.3 | 25.7 | 0.00 | 0.00 | 0.00 | 31 | 1013.0 |
| 20260503192315 | 15 | 239 | 12.9 | 20.9 | 0.00 | 0.00 | 0.00 | 35 | 1013.1 |
| 20260503191311 | 16 | 321 | 12.9 | 29.0 | 0.00 | 0.00 | 0.00 | 32 | 1013.3 |
| 20260503190311 | 16 | 294 | 17.7 | 30.6 | 0.00 | 0.00 | 0.00 | 33 | 1013.4 |
| 20260503185334 | 16 | 308 | 9.7 | 20.9 | 0.00 | 0.00 | 0.00 | 36 | 1013.2 |
| 20260503184328 | 16 | 286 | 9.7 | 19.3 | 0.00 | 0.00 | 0.00 | 34 | 1013.4 |
| 20260503183330 | 15 | 300 | 11.3 | 29.0 | 0.00 | 0.00 | 0.00 | 32 | 1013.7 |
| 20260503182316 | 15 | 320 | 9.7 | 20.9 | 0.00 | 0.00 | 0.00 | 37 | 1013.6 |
| 20260503181352 | 15 | 275 | 11.3 | 22.5 | 0.00 | 0.00 | 0.00 | 34 | 1013.8 |
| 20260503180315 | 15 | 285 | 14.5 | 24.1 | 0.00 | 0.00 | 0.00 | 34 | 1013.8 |
| 20260503175313 | 15 | 284 | 12.9 | 22.5 | 0.00 | 0.00 | 0.00 | 34 | 1013.9 |
| 20260503174334 | 15 | 317 | 11.3 | 30.6 | 0.00 | 0.00 | 0.00 | 39 | 1014.1 |
| 20260503173320 | 15 | 332 | 11.3 | 29.0 | 0.00 | 0.00 | 0.00 | 41 | 1014.2 |
| 20260503172326 | 13 | 329 | 17.7 | 29.0 | 0.00 | 0.00 | 0.00 | 40 | 1014.3 |
| 20260503171359 | 13 | 293 | 4.8 | 22.5 | 0.00 | 0.00 | 0.00 | 41 | 1014.3 |
| 20260503170312 | 14 | 316 | 9.7 | 19.3 | 0.00 | 0.00 | 0.00 | 41 | 1014.2 |
| 20260503150332 | 10 | 328 | 11.3 | 25.7 | 0.00 | 0.00 | 0.00 | 51 | 1015.6 |
| 20260503131313 | 8 | 19 | 9.7 | 24.1 | 0.00 | 0.00 | 0.00 | 60 | 1015.6 |
| 20260503130313 | 7 | 311 | 6.4 | 14.5 | 0.00 | 0.00 | 0.00 | 62 | 1015.9 |
| 20260503110358 | 2 | 292 | 0.0 | 3.2 | 0.00 | 0.00 | 0.00 | 79 | 1015.1 |
| 20260503090342 | 2 | 304 | 0.0 | 8.0 | 0.00 | 0.00 | 0.00 | 76 | 1013.7 |
| 20260503081321 | 3 | 290 | 4.8 | 9.7 | 0.00 | 0.00 | 0.00 | 76 | 1013.5 |
| 20260503080341 | 3 | 302 | 1.6 | 6.4 | 0.00 | 0.00 | 0.00 | 76 | 1013.4 |
| 20260503072315 | 4 | 317 | 0.0 | 3.2 | 0.00 | 0.00 | 0.00 | 75 | 1012.9 |
| 20260503071334 | 5 | 318 | 0.0 | 4.8 | 0.00 | 0.00 | 0.00 | 73 | 1012.9 |
| 20260503070400 | 5 | 347 | 3.2 | 6.4 | 0.00 | 0.00 | 0.00 | 72 | 1012.9 |
| 20260503054341 | 6 | 329 | 6.4 | 12.9 | 0.00 | 0.00 | 0.00 | 70 | 1012.7 |
| 20260503053318 | 6 | 333 | 6.4 | 14.5 | 0.00 | 0.00 | 0.00 | 70 | 1012.7 |
| 20260503052337 | 5 | 320 | 9.7 | 19.3 | 0.00 | 0.00 | 0.00 | 71 | 1012.7 |
| 20260503051340 | 5 | 317 | 6.4 | 12.9 | 0.00 | 0.00 | 0.00 | 71 | 1012.7 |
| 20260503050320 | 5 | 328 | 9.7 | 14.5 | 0.00 | 0.00 | 0.00 | 70 | 1012.7 |
| 20260503045325 | 5 | 351 | 8.0 | 14.5 | 0.00 | 0.00 | 0.00 | 70 | 1012.7 |
| 20260503044317 | 5 | 327 | 6.4 | 9.7 | 0.00 | 0.00 | 0.00 | 69 | 1012.9 |
| 20260503043315 | 5 | 316 | 6.4 | 16.1 | 0.00 | 0.00 | 0.00 | 68 | 1012.9 |
| 20260503042321 | 6 | 5 | 4.8 | 9.7 | 0.00 | 0.00 | 0.00 | 67 | 1012.7 |
| 20260503041323 | 6 | 360 | 4.8 | 12.9 | 0.00 | 0.00 | 0.00 | 66 | 1012.8 |
| 20260503040330 | 6 | 340 | 9.7 | 17.7 | 0.00 | 0.00 | 0.00 | 67 | 1012.9 |
| 20260503035334 | 6 | 325 | 9.7 | 16.1 | 0.00 | 0.03 | 0.00 | 66 | 1013.0 |
| 20260503034339 | 6 | 347 | 8.0 | 16.1 | 0.00 | 0.03 | 0.00 | 66 | 1013.0 |
| 20260503033341 | 6 | 332 | 4.8 | 14.5 | 0.00 | 0.03 | 0.00 | 66 | 1012.9 |
| 20260503032322 | 7 | 351 | 4.8 | 14.5 | 0.00 | 0.03 | 0.00 | 65 | 1012.9 |